EST,Max TemperatureF,Mean TemperatureF,Min TemperatureF,Max Dew PointF,MeanDew PointF,Min DewpointF,Max Humidity, Mean Humidity, Min Humidity, Max Sea Level PressureIn, Mean Sea Level PressureIn, Min Sea Level PressureIn, Max VisibilityMiles, Mean VisibilityMiles, Min VisibilityMiles, Max Wind SpeedMPH, Mean Wind SpeedMPH, Max Gust SpeedMPH,PrecipitationIn, CloudCover, Events, WindDirDegrees
2013-2-1,41,34,26,27,11,1,70,42,24,30.40,30.16,29.88,10,10,10,14,6,28,0.00,1,,271
2013-2-2,42,28,15,32,13,5,93,50,26,30.41,30.26,30.03,10,10,10,10,2,17,0.00,3,Rain,184
2013-2-3,46,40,33,36,28,21,100,62,37,30.02,29.93,29.85,10,10,10,9,3,16,0.00,5,Rain,278
2013-2-4,46,36,26,27,22,18,100,58,34,30.14,30.06,29.99,10,10,10,8,3,,0.00,0,,220
2013-2-5,59,48,37,32,31,27,81,59,34,30.00,29.95,29.89,10,10,10,7,4,,0.00,4,,216
2013-2-6,59,46,32,34,29,21,100,54,23,30.30,30.13,29.97,10,10,7,9,1,,0.00,0,,350
2013-2-7,48,42,35,45,37,34,100,77,66,30.35,30.24,30.02,10,8,3,12,6,20,0.39,3,Rain,47
2013-2-8,53,47,39,46,38,28,100,70,57,30.03,29.88,29.80,10,9,4,16,9,23,0.75,5,Rain,320
2013-2-9,50,39,28,28,21,14,75,53,24,30.36,30.23,30.03,10,10,7,9,4,20,0.00,0,,309
2013-2-10,51,37,23,37,23,18,100,59,26,30.50,30.39,30.23,10,10,7,7,1,,0.01,1,Rain,129
2013-2-11,44,43,42,45,43,39,100,95,87,30.23,30.04,29.92,10,8,2,13,5,20,0.01,6,Rain,204
2013-2-12,59,52,44,52,30,21,100,45,23,30.08,30.00,29.92,10,10,10,8,4,,0.00,1,,277
2013-2-13,46,44,42,45,39,34,100,81,62,29.96,29.77,29.62,10,7,2,7,2,17,0.22,7,Rain,272
2013-2-14,50,42,35,41,34,32,100,74,50,30.08,30.00,29.83,10,10,5,7,2,,0.00,0,,221
2013-2-15,60,48,35,41,32,27,100,55,29,30.09,30.02,29.94,10,9,4,7,2,,0.00,0,,216
2013-2-16,44,42,37,37,34,32,100,77,61,29.97,29.90,29.83,10,6,0,9,4,,0.21,7,Rain,343
2013-2-17,33,28,21,30,12,5,100,52,30,30.28,30.08,29.90,10,10,7,13,4,24,0.08,1,,292
2013-2-18,50,32,15,27,18,12,100,57,25,30.42,30.34,30.27,10,10,10,12,2,,0.00,0,,187
2013-2-19,51,42,32,52,36,27,100,82,67,30.26,30.03,29.85,10,9,2,14,6,24,0.05,4,Rain,207
2013-2-20,50,42,33,39,16,9,100,39,19,30.15,30.05,29.95,10,10,10,10,5,18,0.00,0,,283
2013-2-21,51,38,24,23,18,14,80,46,24,30.28,30.18,30.12,10,10,10,10,2,,0.00,0,,348
2013-2-22,39,36,32,36,30,19,100,82,48,30.36,30.27,30.16,10,7,2,10,4,,0.24,7,Rain,43
2013-2-23,,,,,,,,,,30.13,29.95,29.82,10,5,2,8,3,,0.58,8,Rain,344
2013-2-24,60,48,37,50,33,27,100,53,29,30.04,29.90,29.80,10,8,1,9,2,,0.07,3,Rain,298
2013-2-25,41,36,32,30,24,21,81,64,45,30.24,30.17,30.05,10,10,10,14,6,18,0.00,0,,44
2013-2-26,35,34,33,36,29,27,100,81,70,30.16,29.85,29.57,10,7,0,13,6,18,0.77,7,Fog-Rain,72
2013-2-27,59,50,42,46,36,32,100,59,36,29.78,29.71,29.62,10,10,7,10,4,16,0.00,2,,243
2013-2-28,46,40,33,41,30,25,100,64,43,29.85,29.76,29.70,10,10,10,9,2,18,0.00,5,,277